FW1577 Weather Reports


Display with metric or nautical units.
time (UTC)temp
F
wind
direction
speed
MPH
gust
MPH
rain 1hr
in
rain 24hr
in
rain mn
in
humidity
%
barometer
mb
20260906163005 51 323 0.0 6.0 0.00 0.02 0.00 83 989.3
20260906161502 52 271 0.0 4.0 0.00 0.02 0.00 82 989.5
20260906160100 51 243 0.0 5.0 0.00 0.02 0.00 84 989.5
20260906154605 52 240 0.0 4.0 0.00 0.03 0.00 84 989.7
20260906153058 51 219 1.0 5.0 0.00 0.03 0.00 85 989.7
20260906151553 51 224 0.0 2.0 0.00 0.03 0.00 90 989.6
20260906150101 50 123 0.0 3.0 0.00 0.03 0.00 92 989.6
20260906144546 50 143 1.0 3.0 0.00 0.03 0.00 94 989.6
20260906143047 50 115 0.0 1.0 0.00 0.03 0.00 95 989.6
20260906141546 49 117 0.0 0.0 0.00 0.03 0.00 95 989.6
20260906140041 49 117 0.0 0.0 0.00 0.03 0.00 94 989.6
20260906134539 49 115 0.0 0.0 0.00 0.03 0.03 95 989.5
20260906133038 48 113 0.0 0.0 0.00 0.03 0.03 94 989.5
20260906131538 48 114 0.0 0.0 0.00 0.03 0.03 94 989.5
20260906130047 48 113 0.0 0.0 0.00 0.03 0.03 93 989.5
20260906124536 50 115 0.0 3.0 0.00 0.03 0.03 92 989.5
20260906123042 49 132 1.0 3.0 0.00 0.03 0.03 93 989.7
20260906121537 49 103 0.0 0.0 0.00 0.03 0.03 92 989.8
20260906120035 50 104 0.0 1.0 0.00 0.03 0.03 91 990.0
20260906114539 50 105 0.0 0.0 0.00 0.03 0.03 92 989.9
20260906113034 51 102 0.0 0.0 0.00 0.03 0.03 91 989.9
20260906111536 51 99 0.0 0.0 0.00 0.03 0.03 91 989.7
20260906110032 52 102 0.0 0.0 0.00 0.03 0.03 91 989.7
20260906104540 52 101 0.0 0.0 0.00 0.03 0.03 90 989.6
20260906103041 52 101 0.0 1.0 0.00 0.03 0.03 90 989.3
20260906101531 52 100 0.0 0.0 0.00 0.03 0.03 89 989.2
20260906100029 53 101 0.0 0.0 0.00 0.03 0.03 88 989.2
20260906094532 53 99 0.0 0.0 0.00 0.03 0.03 86 989.1
20260906093035 53 99 0.0 1.0 0.00 0.03 0.03 86 989.0
20260906091533 54 96 0.0 1.0 0.00 0.03 0.03 85 988.9
20260906090022 54 304 0.0 2.0 0.00 0.03 0.03 84 988.9
20260906084520 54 139 0.0 1.0 0.00 0.15 0.03 83 988.6
20260906083020 54 143 0.0 0.0 0.00 0.15 0.03 86 988.5
20260906081519 54 142 0.0 0.0 0.00 0.15 0.03 84 988.4
20260906080015 55 181 0.0 1.0 0.00 0.15 0.03 82 988.2
20260906074514 57 192 0.0 1.0 0.00 0.15 0.03 77 988.0
20260906073012 58 243 0.0 1.0 0.00 0.15 0.03 72 987.7
20260906071511 60 221 0.0 4.0 0.00 0.15 0.03 68 987.5
20260906070019 60 304 0.0 5.0 0.00 0.15 0.03 70 987.4
20260906064510 60 290 2.0 5.0 0.00 0.15 0.03 68 987.3
20260906063009 61 230 1.0 6.0 0.00 0.15 0.03 69 987.2
20260906061511 60 217 2.0 7.0 0.00 0.15 0.03 70 987.4
20260906060008 61 250 1.0 8.0 0.00 0.15 0.03 73 987.3
20260906054507 62 252 1.0 7.0 0.00 0.15 0.03 71 987.3
20260906053005 60 308 3.0 7.0 0.00 0.15 0.03 69 987.1
20260906051504 60 312 3.0 9.0 0.00 0.15 0.03 72 986.9
20260906050002 59 240 2.0 7.0 0.00 0.15 0.03 72 986.9
20260906044502 60 232 4.0 9.0 0.00 0.15 0.03 72 986.9
20260906043059 60 308 3.0 8.0 0.00 0.15 0.03 71 986.7
20260906041557 60 266 3.0 8.0 0.00 0.15 0.03 72 986.7
20260906040103 59 277 2.0 10.0 0.00 0.15 0.03 72 986.8
20260906034556 60 251 2.0 8.0 0.00 0.15 0.03 72 986.8
20260906033059 59 243 2.0 7.0 0.00 0.15 0.03 74 986.7
20260906031609 59 315 5.0 8.0 0.00 0.15 0.03 75 986.8
20260906030048 59 287 4.0 10.0 0.00 0.15 0.03 78 987.0
20260906024559 58 321 5.0 13.0 0.00 0.15 0.03 75 987.0
20260906023054 58 262 2.0 6.0 0.00 0.15 0.03 79 987.1
20260906021545 58 252 3.0 8.0 0.00 0.15 0.03 74 987.2
20260906020041 58 236 2.0 7.0 0.00 0.15 0.03 75 987.3
20260906014537 56 266 2.0 7.0 0.00 0.15 0.03 78 987.6
20260906013035 56 264 0.0 6.0 0.00 0.15 0.03 81 987.6
20260906011534 55 251 1.0 5.0 0.00 0.15 0.03 84 987.6
20260906010044 56 317 1.0 7.0 0.00 0.15 0.03 84 987.5
20260906004530 55 319 3.0 8.0 0.00 0.15 0.03 85 987.5
20260906003027 54 247 1.0 5.0 0.00 0.15 0.03 87 987.5
20260906001531 54 211 0.0 7.0 0.00 0.15 0.03 86 987.4
20260906000024 54 233 2.0 9.0 0.00 0.15 0.03 86 987.4
20260905234522 53 267 1.0 8.0 0.00 0.15 0.03 89 987.4
20260905233019 52 237 2.0 5.0 0.00 0.15 0.03 91 987.3
20260905231514 51 248 0.0 5.0 0.00 0.15 0.03 93 987.1
20260905230024 51 261 0.0 1.0 0.00 0.15 0.03 94 986.7
20260905224516 51 219 0.0 5.0 0.00 0.15 0.03 94 986.4
20260905223014 51 323 0.0 4.0 0.00 0.15 0.03 95 986.5
20260905221506 51 266 0.0 6.0 0.00 0.15 0.03 95 986.0
20260905220004 51 243 3.0 10.0 0.00 0.15 0.03 95 985.8
20260905214501 50 255 1.0 5.0 0.00 0.17 0.03 95 985.6
20260905213102 50 229 0.0 2.0 0.00 0.17 0.03 95 985.5
20260905211609 49 266 0.0 5.0 0.01 0.17 0.03 95 985.2
20260905210103 49 261 0.0 3.0 0.01 0.17 0.03 95 984.9
20260905204556 49 308 0.0 8.0 0.01 0.19 0.03 95 984.7
20260905203051 50 245 0.0 3.0 0.01 0.19 0.03 94 984.5
20260905201553 50 273 3.0 7.0 0.00 0.18 0.02 94 984.4
20260905200056 50 252 2.0 10.0 0.00 0.18 0.02 93 984.3
20260905194546 50 238 2.0 8.0 0.00 0.21 0.02 94 984.1
20260905193044 50 299 2.0 11.0 0.00 0.21 0.02 94 984.0
20260905191544 50 252 1.0 12.0 0.01 0.21 0.02 94 983.8
20260905190040 49 179 3.0 10.0 0.01 0.21 0.02 95 983.5
20260905184537 49 257 3.0 8.0 0.01 0.23 0.02 95 983.2
20260905183037 49 288 2.0 13.0 0.01 0.23 0.02 95 982.9
20260905181533 50 255 4.0 10.0 0.00 0.22 0.02 94 982.8
20260905180030 50 252 5.0 19.0 0.00 0.22 0.02 93 982.4
20260905174527 50 250 2.0 10.0 0.01 0.31 0.02 92 982.1
20260905173048 51 288 3.0 10.0 0.01 0.31 0.02 91 982.0
20260905171518 51 283 3.0 12.0 0.01 0.31 0.02 91 981.6
20260905170016 50 256 1.0 12.0 0.01 0.31 0.02 93 981.5
20260905164513 50 244 2.0 6.0 0.00 0.34 0.01 94 981.4